Weather History for Douglas Bisbee, AZ

Change the Weather History Date:

Wednesday, January 23, 2013

  Actual Average Record
Temperature  
Mean Temperature 51 °F 47 °F  
Max Temperature 73 °F 63 °F 77 °F (1950)
Min Temperature 28 °F 30 °F 14 °F (1955)
Degree Days  
Heating Degree Days 14 18  
Month to date heating degree days 591 437  
Since 1 July heating degree days 1475 1461  
Cooling Degree Days 0 0  
Month to date cooling degree days 0  
Year to date cooling degree days 0  
Growing Degree Days 1 (Base 50)    
Moisture  
Dew Point 23 °F    
Average Humidity 41    
Maximum Humidity 63    
Minimum Humidity 19    
Precipitation  
Precipitation 0.00 in 0.02 in 0.15 in (1961)
Month to date precipitation T 0.54  
Year to date precipitation T 0.54  
Sea Level Pressure  
Sea Level Pressure 30.19 in    
Wind  
Wind Speed 3 mph (ESE)    
Max Wind Speed 13 mph    
Max Gust Speed 13 mph    
Visibility 10 miles    
Events      
T = Trace of Precipitation, MM = Missing Value Source: NWS Daily Summary

Daily Weather History Graph

Daily Weather History Graph

Search for Another Location

Airport:

Trip Planner

Search our weather history database for the weather conditions in past years. The results will help you decide how hot, cold, wet, or windy it might be!

Date:

Astronomy

Jan. 23, 2013 Rise Set
Actual Time 7:15 AM MST 5:45 PM MST
Civil Twilight 6:49 AM MST 6:11 PM MST
Nautical Twilight 6:20 AM MST 6:40 PM MST
Astronomical Twilight 5:51 AM MST 7:09 PM MST
Moon 3:01 PM MST (1/23) 4:26 AM MST (1/23)
Length of Visible Light 11h 21m
Length of Day
10h 29m
Waxing Gibbous, 89% of the Moon is Illuminated
Jan 23
Waxing Gibbous
Jan 26
Full
Feb 3
Last Quarter
Feb 10
New
Feb 17
First Quarter

Hourly Weather History & Observations

Time (MST) Temp. Windchill Dew Point Humidity Pressure Visibility Wind Dir Wind Speed Gust Speed Precip Events Conditions
12:56 AM 39.0 °F - 19.0 °F 45% 30.15 in 10.0 mi Calm Calm - N/A   Clear
1:56 AM 36.0 °F 32.1 °F 18.0 °F 48% 30.17 in 10.0 mi ENE 4.6 mph - N/A   Clear
2:56 AM 32.0 °F - 16.0 °F 52% 30.17 in 10.0 mi Calm Calm - N/A   Clear
3:56 AM 34.0 °F 26.0 °F 18.0 °F 52% 30.17 in 10.0 mi North 10.4 mph - N/A   Clear
4:56 AM 30.9 °F - 17.1 °F 57% 30.18 in 10.0 mi Calm Calm - N/A   Clear
5:56 AM 30.0 °F 25.2 °F 17.1 °F 59% 30.21 in 10.0 mi East 4.6 mph - N/A   Clear
6:56 AM 30.9 °F 23.5 °F 19.9 °F 64% 30.24 in 10.0 mi NE 8.1 mph - N/A   Clear
7:56 AM 33.1 °F 28.7 °F 19.0 °F 56% 30.25 in 10.0 mi West 4.6 mph - N/A   Clear
8:56 AM 44.1 °F - 21.9 °F 42% 30.25 in 10.0 mi Calm Calm - N/A   Clear
9:56 AM 51.1 °F - 23.0 °F 33% 30.27 in 10.0 mi Calm Calm - N/A   Clear
10:56 AM 59.0 °F - 24.1 °F 26% 30.26 in 10.0 mi Calm Calm - N/A   Clear
11:56 AM 64.0 °F - 24.1 °F 22% 30.22 in 10.0 mi Calm Calm - N/A   Clear
12:56 PM 68.0 °F - 25.0 °F 20% 30.17 in 10.0 mi Calm Calm - N/A   Clear
1:56 PM 70.0 °F - 27.0 °F 20% 30.15 in 10.0 mi Calm Calm - N/A   Clear
2:56 PM 71.1 °F - 27.0 °F 19% 30.13 in 10.0 mi South 5.8 mph - N/A   Clear
3:56 PM 72.0 °F - 27.0 °F 19% 30.14 in 10.0 mi SSE 6.9 mph - N/A   Clear
4:56 PM 71.1 °F - 28.0 °F 20% 30.13 in 10.0 mi SSE 4.6 mph - N/A   Clear
5:56 PM 66.0 °F - 26.1 °F 22% 30.16 in 10.0 mi South 4.6 mph - N/A   Clear
6:56 PM 55.9 °F - 25.0 °F 30% 30.19 in 10.0 mi East 3.5 mph - N/A   Clear
7:56 PM 52.0 °F - 24.1 °F 34% 30.19 in 10.0 mi East 6.9 mph - N/A   Clear
8:56 PM 50.0 °F - 24.1 °F 36% 30.19 in 10.0 mi Calm Calm - N/A   Clear
9:56 PM 45.0 °F - 21.9 °F 40% 30.19 in 10.0 mi Calm Calm - N/A   Clear
10:56 PM 45.0 °F - 23.0 °F 42% 30.18 in 10.0 mi Calm Calm - N/A   Clear
11:56 PM 46.9 °F - 25.0 °F 42% 30.16 in 10.0 mi Calm Calm - N/A   Clear